This is the latest recevied weather packets stored in our database for station/object W4SNA-3. If no packets are shown the sender has not sent any weather packets the latest 10 day(s).
| Time | Temp. | Humidity | Pressure | Rain* | Wind** | Luminosity | Snow |
|---|---|---|---|---|---|---|---|
| 1777840444 | 15.56° C | 29% | 1014.1 hPa | 0 mm | - | - | - |
| 1777840144 | 15.56° C | 30% | 1014.1 hPa | 0 mm | - | - | - |
| 1777839844 | 15.56° C | 32% | 1014 hPa | 0 mm | - | - | - |
| 1777839425 | 15.56° C | 31% | 1014.2 hPa | 0 mm | - | - | - |
| 1777839126 | 15.56° C | 31% | 1014.2 hPa | 0 mm | - | - | - |
| 1777838826 | 16.11° C | 30% | 1014.4 hPa | 0 mm | - | - | - |
| 1777838325 | 15.56° C | 31% | 1014.4 hPa | 0 mm | - | - | - |
| 1777838057 | 15.56° C | 29% | 1014.5 hPa | 0 mm | - | - | - |
| 1777837721 | 15.56° C | 29% | 1014.5 hPa | 0 mm | - | - | - |
| 1777837421 | 15° C | 29% | 1014.6 hPa | 0 mm | - | - | - |
| 1777836841 | 15.56° C | 30% | 1014.6 hPa | 0 mm | - | - | - |
| 1777836541 | 15.56° C | 33% | 1014.6 hPa | 0 mm | - | - | - |
| 1777836241 | 15.56° C | 34% | 1014.8 hPa | 0 mm | - | - | - |
| 1777835941 | 15.56° C | 30% | 1014.8 hPa | 0 mm | - | - | - |
| 1777835611 | 15.56° C | 33% | 1015 hPa | 0 mm | - | - | - |
| 1777835310 | 15.56° C | 28% | 1015 hPa | 0 mm | - | - | - |
| 1777835010 | 15.56° C | 30% | 1015.1 hPa | 0 mm | - | - | - |
| 1777834710 | 15.56° C | 29% | 1015 hPa | 0 mm | - | - | - |
| 1777834410 | 15° C | 34% | 1014.9 hPa | 0 mm | - | - | - |
| 1777833930 | 15.56° C | 29% | 1015.1 hPa | 0 mm | - | - | - |
| 1777833631 | 15.56° C | 30% | 1015.4 hPa | 0 mm | - | - | - |
| 1777833330 | 15° C | 26% | 1015.4 hPa | 0 mm | - | - | - |
| 1777833030 | 15° C | 27% | 1015.4 hPa | 0 mm | - | - | - |
| 1777832730 | 15° C | 29% | 1015.5 hPa | 0 mm | - | - | - |
| 1777832430 | 15° C | 32% | 1015.4 hPa | 0 mm | - | - | - |
* Rain latest hour (hover to see other rain measurements)
** Current wind speed in m/s (hover to see current wind gust speed)